EN

Hourly Weather Nacionalni Park Biogradska Gora

Today, 29 November, Sunday

Time Temperature Precipitation Wind Pressure Humidity
00:00 -1°C° 0 mm 0 mps 633 mmHg 81%
01:00 0°C° 0 mm 0 mps 633 mmHg 83%
02:00 0°C° 0.1 mm 0 mps 633 mmHg 84%
03:00 0°C° 0.1 mm 0 mps 633 mmHg 84%
04:00 0°C° 0.1 mm 0 mps 633 mmHg 84%
05:00 +1°C° 0.1 mm 1 mps 633 mmHg 87%
06:00 0°C° 0.1 mm 1 mps 632 mmHg 90%
07:00 0°C° 0 mm 1 mps 633 mmHg 94%
08:00 +1°C° 0 mm 1 mps 633 mmHg 90%
09:00 +2°C° 0 mm 1 mps 633 mmHg 86%
10:00 +2°C° 0 mm 1 mps 633 mmHg 82%
11:00 +3°C° 0 mm 1 mps 633 mmHg 79%
12:00 +3°C° 0 mm 1 mps 633 mmHg 76%
13:00 +3°C° 0 mm 2 mps 633 mmHg 74%
14:00 +2°C° 0 mm 2 mps 633 mmHg 77%
15:00 +1°C° 0 mm 2 mps 633 mmHg 80%
16:00 +1°C° 0 mm 2 mps 632 mmHg 83%
17:00 -1°C° 0 mm 2 mps 632 mmHg 85%
18:00 -1°C° 0 mm 2 mps 633 mmHg 86%
19:00 -2°C° 0 mm 2 mps 633 mmHg 88%
20:00 -2°C° 0 mm 2 mps 633 mmHg 89%
21:00 -3°C° 0 mm 2 mps 633 mmHg 89%
22:00 -3°C° 0 mm 2 mps 633 mmHg 90%
23:00 -3°C° 0.1 mm 2 mps 633 mmHg 90%

Tomorrow, 30 November, Monday

Time Temperature Precipitation Wind Pressure Humidity
00:00 -3°C° 0.1 mm 2 mps 633 mmHg 90%
01:00 -3°C° 0.1 mm 2 mps 633 mmHg 90%
02:00 -4°C° 0 mm 2 mps 633 mmHg 90%
03:00 -4°C° 0 mm 2 mps 633 mmHg 90%
04:00 -4°C° 0 mm 2 mps 633 mmHg 91%
05:00 -5°C° 0 mm 2 mps 633 mmHg 90%
06:00 -5°C° 0 mm 2 mps 633 mmHg 89%
07:00 -6°C° 0 mm 2 mps 633 mmHg 89%
08:00 -5°C° 0 mm 2 mps 634 mmHg 80%
09:00 -5°C° 0 mm 2 mps 635 mmHg 72%
10:00 -4°C° 0 mm 2 mps 635 mmHg 64%
11:00 -3°C° 0 mm 2 mps 635 mmHg 60%
12:00 -3°C° 0 mm 2 mps 635 mmHg 56%
13:00 -2°C° 0 mm 2 mps 635 mmHg 52%
14:00 -3°C° 0 mm 2 mps 635 mmHg 57%
15:00 -4°C° 0 mm 2 mps 635 mmHg 62%
16:00 -5°C° 0 mm 2 mps 634 mmHg 67%
17:00 -6°C° 0 mm 2 mps 634 mmHg 71%
18:00 -7°C° 0 mm 2 mps 634 mmHg 74%
19:00 -7°C° 0 mm 2 mps 634 mmHg 78%
20:00 -8°C° 0 mm 2 mps 634 mmHg 78%
21:00 -7°C° 0 mm 1 mps 634 mmHg 79%
22:00 -7°C° 0 mm 1 mps 634 mmHg 79%
23:00 -7°C° 0 mm 1 mps 634 mmHg 76%

Day after tomorrow, 1 December, Tuesday

Time Temperature Precipitation Wind Pressure Humidity
00:00 -7°C° 0 mm 1 mps 634 mmHg 74%
01:00 -7°C° 0 mm 1 mps 634 mmHg 71%
02:00 -7°C° 0 mm 1 mps 633 mmHg 68%
03:00 -7°C° 0 mm 1 mps 633 mmHg 65%
04:00 -7°C° 0 mm 1 mps 633 mmHg 63%
05:00 -7°C° 0 mm 1 mps 633 mmHg 59%
06:00 -7°C° 0 mm 1 mps 633 mmHg 56%
07:00 -7°C° 0 mm 1 mps 632 mmHg 52%
08:00 -3°C° 0 mm 1 mps 633 mmHg 44%
09:00 -1°C° 0 mm 1 mps 634 mmHg 36%
10:00 +1°C° 0 mm 0 mps 635 mmHg 28%
11:00 +3°C° 0 mm 1 mps 634 mmHg 28%
12:00 +4°C° 0 mm 1 mps 634 mmHg 27%
13:00 +5°C° 0 mm 1 mps 634 mmHg 26%
14:00 +3°C° 0 mm 1 mps 633 mmHg 33%
15:00 0°C° 0 mm 1 mps 632 mmHg 40%
16:00 -3°C° 0 mm 0 mps 631 mmHg 48%
17:00 -2°C° 0 mm 1 mps 631 mmHg 51%
18:00 -3°C° 0 mm 1 mps 631 mmHg 55%
19:00 -3°C° 0 mm 1 mps 631 mmHg 59%
20:00 -3°C° 0 mm 1 mps 632 mmHg 63%
21:00 -3°C° 0 mm 1 mps 632 mmHg 68%
22:00 -3°C° 0 mm 1 mps 632 mmHg 72%
23:00 -3°C° 0 mm 1 mps 632 mmHg 76%

2 December, Wednesday

Time Temperature Precipitation Wind Pressure Humidity
00:00 -3°C° 0 mm 1 mps 632 mmHg 81%
01:00 -3°C° 0 mm 1 mps 632 mmHg 85%
02:00 -3°C° 0 mm 1 mps 632 mmHg 87%
03:00 -2°C° 0 mm 1 mps 632 mmHg 88%
04:00 -2°C° 0 mm 1 mps 632 mmHg 90%
05:00 -2°C° 0 mm 1 mps 631 mmHg 90%
06:00 -2°C° 0 mm 1 mps 631 mmHg 89%
07:00 -2°C° 0 mm 1 mps 631 mmHg 89%
08:00 0°C° 0 mm 1 mps 632 mmHg 84%
09:00 +1°C° 0 mm 1 mps 632 mmHg 80%
10:00 +3°C° 0 mm 1 mps 633 mmHg 76%
11:00 +3°C° 0.1 mm 1 mps 633 mmHg 77%
12:00 +3°C° 0.1 mm 1 mps 632 mmHg 78%
13:00 +4°C° 0.1 mm 1 mps 632 mmHg 79%
14:00 +3°C° 0.1 mm 1 mps 632 mmHg 83%
15:00 +2°C° 0.1 mm 1 mps 631 mmHg 86%
16:00 +1°C° 0.1 mm 1 mps 631 mmHg 90%
17:00 +1°C° 0.1 mm 1 mps 631 mmHg 90%
18:00 0°C° 0.1 mm 1 mps 631 mmHg 91%
19:00 0°C° 0.1 mm 1 mps 631 mmHg 91%
20:00 0°C° 0 mm 1 mps 631 mmHg 90%
21:00 0°C° 0 mm 1 mps 631 mmHg 90%
22:00 0°C° 0 mm 1 mps 631 mmHg 90%
23:00 0°C° 0 mm 1 mps 631 mmHg 90%

3 December, Thursday

Time Temperature Precipitation Wind Pressure Humidity
00:00 0°C° 0 mm 1 mps 631 mmHg 89%
01:00 0°C° 0 mm 1 mps 631 mmHg 89%
02:00 0°C° 0 mm 1 mps 631 mmHg 90%
03:00 0°C° 0 mm 1 mps 631 mmHg 90%
04:00 0°C° 0 mm 1 mps 630 mmHg 91%
05:00 +1°C° 0.2 mm 1 mps 630 mmHg 92%
06:00 +1°C° 0.2 mm 1 mps 630 mmHg 93%
07:00 +1°C° 0.2 mm 1 mps 630 mmHg 94%
08:00 +2°C° 0 mm 1 mps 631 mmHg 91%
09:00 +3°C° 0 mm 1 mps 631 mmHg 87%
10:00 +4°C° 0 mm 1 mps 631 mmHg 84%
11:00 +4°C° 0.6 mm 1 mps 630 mmHg 85%
12:00 +4°C° 0.6 mm 1 mps 630 mmHg 87%
13:00 +3°C° 0.6 mm 1 mps 629 mmHg 89%
14:00 +3°C° 2.4 mm 1 mps 629 mmHg 91%
15:00 +2°C° 2.4 mm 1 mps 628 mmHg 94%
16:00 -1°C° 2.4 mm 2 mps 628 mmHg 97%
17:00 -1°C° 0.4 mm 2 mps 627 mmHg 96%
18:00 -1°C° 0.4 mm 2 mps 627 mmHg 96%
19:00 -1°C° 0.4 mm 2 mps 627 mmHg 96%
20:00 -1°C° 0.3 mm 2 mps 627 mmHg 96%
21:00 -1°C° 0.3 mm 2 mps 626 mmHg 96%
22:00 -1°C° 0.3 mm 2 mps 626 mmHg 96%
23:00 -1°C° 2 mm 2 mps 626 mmHg 97%

4 December, Friday

Time Temperature Precipitation Wind Pressure Humidity
00:00 -1°C° 2 mm 2 mps 625 mmHg 97%
01:00 -2°C° 2 mm 2 mps 625 mmHg 98%
02:00 -1°C° 0.6 mm 2 mps 625 mmHg 98%
03:00 -1°C° 0.6 mm 3 mps 625 mmHg 97%
04:00 -1°C° 0.6 mm 3 mps 626 mmHg 97%
05:00 -1°C° 0.7 mm 3 mps 626 mmHg 97%
06:00 -2°C° 0.7 mm 2 mps 626 mmHg 97%
07:00 -2°C° 0.7 mm 2 mps 626 mmHg 97%
08:00 -2°C° 2 mm 2 mps 626 mmHg 97%
09:00 -1°C° 2 mm 2 mps 626 mmHg 96%
10:00 +1°C° 2 mm 1 mps 627 mmHg 96%
11:00 +1°C° 1 mm 1 mps 627 mmHg 95%
12:00 -1°C° 1 mm 2 mps 627 mmHg 95%
13:00 +1°C° 1 mm 2 mps 627 mmHg 95%
14:00 -1°C° 0.7 mm 2 mps 627 mmHg 96%
15:00 -1°C° 0.7 mm 2 mps 627 mmHg 97%
16:00 -1°C° 0.7 mm 2 mps 627 mmHg 98%
17:00 -1°C° 0.2 mm 2 mps 627 mmHg 98%
18:00 -1°C° 0.2 mm 2 mps 628 mmHg 98%
19:00 -1°C° 0.2 mm 2 mps 628 mmHg 98%
20:00 -1°C° 0 mm 2 mps 628 mmHg 97%
21:00 -1°C° 0 mm 2 mps 629 mmHg 97%
22:00 -1°C° 0 mm 2 mps 629 mmHg 97%
23:00 -1°C° 0 mm 2 mps 629 mmHg 97%
Show more

We Need Your Consent

Meteoprog and our Service Providers may store and access personal data such as cookies, device identifiers or other similar technologies on your device and process such data to personalise content and ads, as well as provide social media features and to analyse the traffic.

  • Store and/or access information on your device

    Cookies, device identifiers or other information can be stored or accessed on your device for the purposes indicated above.

  • Personalised ads and content, ad and content measurement, audience insights, and products development

    Ads and content can be personalised based on a profile. More data can be added to better personalise ads and content. Ad and content performance can be measured. Insights about the audience who saw the ads and content can be derived. Such data can be used to develop or improve user’s experience, systems and software.

By clicking ‘I Agree’ you will allow the use of indicated cookies, device identifiers, web beacons or other similar technologies. Your settings can be changed in the browser on your device.

For certain purposes, legitimate interests may be relied on, rather than consent. You can read more about this in our Privacy and Cookie Policy.